Terminal Aerodrome Forecast
Issued by NWS Boston, MA

Home | Current Version | Previous Version | Text Only | Print | Product List | Glossary On
Versions: 1 2 3 4 5 6 7 8 9 10 11 12 13 14 15 16 17 18 19 20 21 22 23 24 25 26 27 28 29 30 31 32 33 34 35 36 37 38 39 40 41 42 43 44 45
000
FTUS41 KBOX 230204 AAA
TAFBOS
TAF AMD
KBOS 230204Z 2302/2406 05010KT P6SM BKN018 BKN100
     FM230700 04007KT P6SM OVC015
     FM231400 05008KT P6SM BKN025
     FM231600 06009KT P6SM BKN040
     FM231900 07010KT P6SM SCT200
     FM240000 08006KT P6SM FEW250=

USA.gov is the U.S. government's official web portal to all federal, state and local government web resources and services.